TimeAKDT,TemperatureF,Dew PointF,Humidity,Sea Level PressureIn,VisibilityMPH,Wind Direction,Wind SpeedMPH,Gust SpeedMPH,PrecipitationIn,Events,Conditions,WindDirDegrees,DateUTC
12:53 AM,44.1,30.0,58,30.26,10.0,Calm,Calm,-,N/A,,Mostly Cloudy,0,2013-05-22 08:53:00
1:53 AM,43.0,28.9,58,30.25,10.0,Calm,Calm,-,N/A,,Mostly Cloudy,0,2013-05-22 09:53:00
2:53 AM,41.0,28.9,62,30.24,10.0,Calm,Calm,-,N/A,,Mostly Cloudy,0,2013-05-22 10:53:00
3:53 AM,39.0,28.9,67,30.23,10.0,Calm,Calm,-,N/A,,Mostly Cloudy,0,2013-05-22 11:53:00
4:53 AM,41.0,28.9,62,30.21,10.0,Calm,Calm,-,N/A,,Mostly Cloudy,0,2013-05-22 12:53:00
5:53 AM,41.0,30.9,67,30.20,10.0,Calm,Calm,-,N/A,,Mostly Cloudy,0,2013-05-22 13:53:00
6:53 AM,42.1,30.0,62,30.19,10.0,Calm,Calm,-,N/A,,Mostly Cloudy,0,2013-05-22 14:53:00
7:53 AM,42.1,35.1,76,30.19,10.0,WNW,3.5,-,N/A,,Overcast,290,2013-05-22 15:53:00
8:53 AM,45.0,34.0,65,30.19,10.0,Calm,Calm,-,N/A,,Overcast,0,2013-05-22 16:53:00
9:53 AM,48.0,30.9,52,30.18,10.0,WNW,3.5,-,N/A,,Mostly Cloudy,290,2013-05-22 17:53:00
10:53 AM,50.0,28.9,44,30.17,10.0,Calm,Calm,-,N/A,,Mostly Cloudy,0,2013-05-22 18:53:00
11:53 AM,52.0,28.9,41,30.16,10.0,Variable,3.5,-,N/A,,Overcast,0,2013-05-22 19:53:00
12:53 PM,53.1,28.0,38,30.15,10.0,West,5.8,-,N/A,,Overcast,280,2013-05-22 20:53:00
1:53 PM,53.1,28.0,38,30.14,10.0,WNW,8.1,-,N/A,,Overcast,290,2013-05-22 21:53:00
2:53 PM,55.0,28.9,37,30.13,10.0,NW,6.9,-,N/A,,Mostly Cloudy,310,2013-05-22 22:53:00
3:53 PM,54.0,28.0,37,30.12,10.0,West,10.4,-,N/A,,Mostly Cloudy,270,2013-05-22 23:53:00
4:53 PM,54.0,30.0,40,30.12,10.0,West,11.5,-,N/A,,Overcast,270,2013-05-23 00:53:00
5:53 PM,51.1,30.9,46,30.13,10.0,West,10.4,-,N/A,,Overcast,260,2013-05-23 01:53:00
6:53 PM,50.0,35.1,57,30.13,10.0,West,9.2,-,N/A,,Overcast,260,2013-05-23 02:53:00
7:53 PM,50.0,36.0,59,30.13,10.0,WSW,4.6,-,N/A,,Overcast,250,2013-05-23 03:53:00
8:53 PM,50.0,37.9,63,30.13,10.0,WSW,4.6,-,0.00,,Mostly Cloudy,250,2013-05-23 04:53:00
9:53 PM,46.9,37.9,71,30.13,10.0,WNW,3.5,-,N/A,,Overcast,300,2013-05-23 05:53:00
10:53 PM,46.9,39.0,74,30.14,10.0,SSW,3.5,-,0.00,Rain,Light Rain,200,2013-05-23 06:53:00
11:53 PM,45.0,41.0,86,30.15,10.0,Calm,Calm,-,0.00,Rain,Light Rain,0,2013-05-23 07:53:00